Le nostre stazioni meteo in Italia

Pubblicità
Il mio iltempo24.it
Milano/Linate, Italia (16080): Temperatura & dewpoint: 14.01.2019 07:00:00 - 20.01.2019 07:00:00 (CET)Milano/Linate, Italia (16080): velocità del vento: 14.01.2019 07:00:00 - 20.01.2019 07:00:00 (CET)Milano/Linate, Italia (16080): direzione del vento: 14.01.2019 07:00:00 - 20.01.2019 07:00:00 (CET)Milano/Linate, Italia (16080): reduced air pressure: 14.01.2019 07:00:00 - 20.01.2019 07:00:00 (CET)Milano/Linate, Italia (16080): visibility: 14.01.2019 07:00:00 - 20.01.2019 07:00:00 (CET)Milano/Linate, Italia (16080): precipitazioni: 14.01.2019 07:00:00 - 20.01.2019 07:00:00 (CET)
Data & Tempo tt [°C] td [°C] ff [km/h] ff [kn] dd ppp [hPa] vv [km] rr [mm]
20.01.2019 07:00:00 -2,0 -2,0 0 0 N - 10 -
20.01.2019 06:00:00 -2,0 -2,0 0 0 N - 10 -
20.01.2019 05:00:00 -2,0 -2,0 4 2 S - 10 -
20.01.2019 04:00:00 -1,4 -1,6 0 0 N 1014,8 10 0,0
20.01.2019 03:00:00 -1,0 -1,0 2 1 - - 10 -
20.01.2019 02:00:00 0,0 -1,0 2 1 - - 10 -
20.01.2019 01:00:00 1,1 -0,3 4 2 NO 1015,4 10 -
20.01.2019 00:00:00 2,0 0,0 2 1 - - 10 -
19.01.2019 23:00:00 3,0 0,0 2 1 O - 10 -
19.01.2019 22:00:00 3,1 0,4 4 2 SSE 1015,9 10 0,0
19.01.2019 21:00:00 3,0 1,0 2 1 - - 10 -
19.01.2019 20:00:00 4,0 0,0 2 1 - - 10 -
19.01.2019 19:00:00 4,9 -1,2 5 3 E 1015,7 10 -
19.01.2019 18:00:00 5,0 -1,0 5 3 ENE - 10 -
19.01.2019 17:00:00 5,0 -2,0 4 2 - - 10 -
19.01.2019 16:00:00 5,6 -1,2 8 4 E 1015,9 10 0,0
19.01.2019 15:00:00 6,0 -1,0 9 5 ENE - 10 -
19.01.2019 14:00:00 6,0 -1,0 8 4 E - 10 -
19.01.2019 13:00:00 5,7 -1,0 9 5 SE 1017,3 10 -
19.01.2019 12:00:00 5,0 -1,0 9 5 E - 10 -
19.01.2019 11:00:00 5,0 0,0 8 4 NE - 10 -
19.01.2019 10:00:00 4,1 0,4 8 4 NE 1017,8 10 0,0
19.01.2019 09:00:00 4,0 0,0 5 3 ENE - 10 -
19.01.2019 08:00:00 4,0 0,0 5 3 ENE - 10 -
19.01.2019 07:00:00 3,4 1,0 8 4 ENE 1017,0 10 -
19.01.2019 06:00:00 - - - - - - - -
19.01.2019 05:00:00 - - - - - - - -
19.01.2019 04:00:00 3,6 1,1 11 6 SE 1017,5 10 0,0
19.01.2019 03:00:00 4,0 2,0 11 6 SE - 10 -
19.01.2019 02:00:00 4,0 2,0 4 2 - - 10 -
19.01.2019 01:00:00 3,5 2,5 5 3 SSE 1017,1 10 -
19.01.2019 00:00:00 4,0 3,0 5 3 E - 10 -
18.01.2019 23:00:00 4,0 3,0 8 4 NE - 10 -
18.01.2019 22:00:00 3,9 3,0 8 4 NNE 1016,5 10 0,0
18.01.2019 21:00:00 4,0 3,0 9 5 ENE - 10 -
18.01.2019 20:00:00 5,0 4,0 13 7 E - 10 -
18.01.2019 19:00:00 5,6 4,1 9 5 E 1015,5 10 -
18.01.2019 18:00:00 6,0 4,0 13 7 ESE - 8 -
18.01.2019 17:00:00 6,0 4,0 9 5 E - 8 -
18.01.2019 16:00:00 5,5 3,6 9 5 E 1013,9 8 0,0
18.01.2019 15:00:00 4,0 3,0 5 3 E - 8 -
18.01.2019 14:00:00 4,0 3,0 5 3 SE - 5 -
18.01.2019 13:00:00 3,7 3,4 8 4 SSE 1012,3 5 -
18.01.2019 12:00:00 3,0 3,0 4 2 - - 3,0 -
18.01.2019 11:00:00 2,0 2,0 4 2 - - 0,6 -
18.01.2019 10:00:00 1,8 1,8 5 3 E 1011,9 0,1 0,0
18.01.2019 09:00:00 1,0 1,0 4 2 - - 0,1 -
18.01.2019 08:00:00 2,0 2,0 4 2 - - 0,2 -
18.01.2019 07:00:00 1,7 1,7 5 3 S 1009,6 - -
18.01.2019 06:00:00 2,0 2,0 5 3 SSO - 1,4 -
18.01.2019 05:00:00 4,0 4,0 8 4 O - 2,0 -
18.01.2019 04:00:00 5,0 4,5 16 9 O 1009,6 2,1 0,0
18.01.2019 03:00:00 6,0 5,0 11 6 O - 2,8 -
18.01.2019 02:00:00 6,0 5,0 9 5 O - 2,8 -
18.01.2019 01:00:00 6,2 5,2 9 5 O 1010,5 2,2 -
18.01.2019 00:00:00 6,0 5,0 8 4 SO - 2,4 -
17.01.2019 23:00:00 6,0 5,0 2 1 - - 4,0 -
17.01.2019 22:00:00 5,8 4,5 2 1 - 1011,0 4,0 0,0
17.01.2019 21:00:00 5,0 5,0 4 2 - - 4,0 -
17.01.2019 20:00:00 5,0 4,0 4 2 - - 3,5 -
17.01.2019 19:00:00 5,2 4,4 8 4 ESE 1011,7 3,5 -
17.01.2019 18:00:00 5,0 4,0 8 4 ESE - 3,5 -
17.01.2019 17:00:00 - - - - - - - -
17.01.2019 16:00:00 5,7 4,5 11 6 E 1012,2 3,5 0,0
17.01.2019 15:00:00 6,0 5,0 8 4 ENE - 3,5 -
17.01.2019 14:00:00 6,0 5,0 5 3 E - 2,5 -
17.01.2019 13:00:00 5,5 5,3 9 5 E 1013,9 1,2 -
17.01.2019 12:00:00 5,0 5,0 2 1 - - 2,5 -
17.01.2019 11:00:00 5,0 4,0 4 2 - - 2,5 -
17.01.2019 10:00:00 6,0 5,0 5 3 OSO - 2,5 -
17.01.2019 09:00:00 6,0 5,0 4 2 - - 2,5 -
17.01.2019 08:00:00 6,0 6,0 9 5 O - 3,0 -
17.01.2019 07:00:00 6,3 6,3 2 1 - 1014,8 5 -
17.01.2019 06:00:00 7,0 7,0 9 5 SO - 3,5 -
17.01.2019 05:00:00 - - - - - - - -
17.01.2019 04:00:00 6,7 6,6 2 1 - 1016,2 10 0,0
17.01.2019 03:00:00 - - - - - - - -
17.01.2019 02:00:00 7,0 7,0 2 1 - - 10 -
17.01.2019 01:00:00 7,0 6,8 2 1 - 1017,4 10 -
17.01.2019 00:00:00 7,0 6,0 4 2 - - 10 -
16.01.2019 23:00:00 7,0 5,0 4 2 - - 10 -
16.01.2019 22:00:00 6,9 4,8 2 1 - 1018,4 10 0,0
16.01.2019 21:00:00 7,0 4,0 4 2 NNO - 10 -
16.01.2019 20:00:00 8,0 3,0 2 1 - - 10 -
16.01.2019 19:00:00 8,2 2,7 4 2 - 1018,0 10 -
16.01.2019 18:00:00 8,0 2,0 5 3 S - 10 -
16.01.2019 17:00:00 9,0 2,0 8 4 S - 10 -
16.01.2019 16:00:00 11,0 2,4 4 2 - 1018,0 10 0,0
16.01.2019 15:00:00 12,0 2,0 2 1 - - 10 -
16.01.2019 14:00:00 10,0 1,0 5 3 S - 10 -
16.01.2019 13:00:00 10,8 0,6 4 2 - 1019,3 10 -
16.01.2019 12:00:00 8,0 1,0 4 2 - - 10 -
16.01.2019 11:00:00 6,0 0,0 4 2 - - 10 -
16.01.2019 10:00:00 4,8 -0,1 2 1 - 1020,3 10 0,0
16.01.2019 09:00:00 3,0 -1,0 4 2 - - 10 -
16.01.2019 08:00:00 1,0 -1,0 2 1 - - 10 -
16.01.2019 07:00:00 0,1 -1,9 2 1 - 1019,4 10 -
16.01.2019 06:00:00 -1,0 -3,0 2 1 - - 10 -
16.01.2019 05:00:00 0,0 -2,0 2 1 NNO - 10 -
16.01.2019 04:00:00 0,0 -2,2 5 3 SSO 1019,8 10 0,0
16.01.2019 03:00:00 0,0 -3,0 2 1 SSE - 10 -
16.01.2019 02:00:00 0,0 -3,0 5 3 NNE - 10 -
16.01.2019 01:00:00 -0,6 -3,6 2 1 - 1019,8 10 -
16.01.2019 00:00:00 1,0 -2,0 2 1 - - 10 -
15.01.2019 23:00:00 1,0 -2,0 2 1 - - 10 -
15.01.2019 22:00:00 1,5 -2,5 5 3 N 1019,8 10 0,0
15.01.2019 21:00:00 2,0 -3,0 2 1 - - 10 -
15.01.2019 20:00:00 4,0 -3,0 5 3 NNE - 10 -
15.01.2019 19:00:00 4,0 -3,1 2 1 - 1018,4 10 -
15.01.2019 18:00:00 8,0 -3,0 4 2 O - 10 -
15.01.2019 17:00:00 11,0 -3,0 8 4 O - 10 -
15.01.2019 16:00:00 11,6 -3,2 9 5 O 1017,3 10 0,0
15.01.2019 15:00:00 13,0 -3,0 11 6 O - 10 -
15.01.2019 14:00:00 11,0 -2,0 8 4 SO - 10 -
15.01.2019 13:00:00 10,5 -2,3 8 4 SO 1017,9 10 -
15.01.2019 12:00:00 8,0 -2,0 11 6 SE - 10 -
15.01.2019 11:00:00 9,0 -2,0 5 3 ESE - 10 -
15.01.2019 10:00:00 6,6 -3,3 11 6 O 1018,3 10 0,0
15.01.2019 09:00:00 3,0 -5,0 5 3 SSO - 10 -
15.01.2019 08:00:00 1,0 -5,0 8 4 SO - 10 -
15.01.2019 07:00:00 3,6 -4,7 9 5 O 1015,5 10 -
15.01.2019 06:00:00 5,0 -5,0 13 7 OSO - 10 -
15.01.2019 05:00:00 6,0 -6,0 5 3 NNO - 10 -
15.01.2019 04:00:00 6,0 -6,0 9 5 N - 10 -
15.01.2019 03:00:00 3,0 -5,0 8 4 O - 10 -
15.01.2019 02:00:00 - - - - - - - -
15.01.2019 01:00:00 8,3 -6,3 5 3 NO 1013,9 10 -
15.01.2019 00:00:00 10,0 -6,0 21 11 N - 10 -
14.01.2019 23:00:00 10,0 -6,0 21 11 N - 10 -
14.01.2019 22:00:00 9,3 -5,6 24 13 NNE 1012,0 10 0,0
14.01.2019 21:00:00 11,0 -7,0 29 16 N - 10 -
14.01.2019 20:00:00 12,0 -7,0 35 19 N - 10 -
14.01.2019 19:00:00 11,8 -7,8 28 15 N 1009,0 10 -
14.01.2019 18:00:00 13,0 -8,0 28 15 N - 10 -
14.01.2019 17:00:00 13,0 -7,0 31 17 NNE - 10 -
14.01.2019 16:00:00 14,3 -6,8 29 16 N 1006,5 10 0,0
14.01.2019 15:00:00 15,0 -6,0 28 15 NNO - 10 -
14.01.2019 14:00:00 16,0 -6,0 29 16 NNO - 10 -
14.01.2019 13:00:00 15,8 -5,8 41 22 N 1005,3 10 -
14.01.2019 12:00:00 15,0 -2,0 34 18 N - 10 -
14.01.2019 11:00:00 14,0 1,0 22 12 N - 10 -
14.01.2019 10:00:00 12,3 1,8 18 10 NNE 1005,2 10 0,0
14.01.2019 09:00:00 11,0 0,0 21 11 N - 10 -
14.01.2019 08:00:00 9,0 1,0 18 10 NO - 10 -
14.01.2019 07:00:00 5,4 1,6 9 5 O 1001,1 10 -

tt = Temperatura
td = dewpoint
ff = velocità del vento
dd = direzione del vento
ppp = reduced air pressure
vv = visibility
rr = precipitazioni

Stazioni seguenti

WeatherPro
AMSI
MeteoEarth